www.pogodaiklimat.ru

Погода и климат >> Архив погоды >> Россия >> Ставропольский край >> Арзгир


ПОГОДА в Арзгире

  • Прогноз погоды в Арзгире
  • Монитор погоды в Арзгире

АРХИВ ПОГОДЫ в Арзгире

Время (UTC), дата Ветер
(напр.,м/с)
 
Видим.   Явления Облачность Т
(С)
Тd
(С)
f
(%)
Тe
(С)
Тes
(С)
Комфортность P
(гПа)
Po
(гПа)
Тmin
(С)
Tmax
(С)
R
(мм)
R24
(мм)
S
(см)
00 14.03 СЗ 2 4000 м дымка {дождь} 10/10 600 м
[Sc]
+2.1 +1.0 92 -1 -1 1019.0 1006.1
03 14.03 СЗ 2 4000 м дымка 9/9 600 м
[Sc]
+1.4 +0.1 91 -2 -2 1021.5 1008.6 +1.4 3
06 14.03 С 2 4000 м дымка 10/10 300 м
[St]
+1.7 -0.1 88 -2 -2 1022.6 1009.7 +0.9
09 14.03 СВ 3 20 км 8/0 2000 м
[Ac cast Ci fib]
+5.8 -2.2 56 +3 +9 1021.2 1008.4
12 14.03 В 3 20 км 8/0 2000 м
[Ac cast]
+6.8 -3.5 48 +4 +6 1020.3 1007.6
15 14.03 В 3 20 км 4/0
[Ci fib]
+5.9 -3.3 52 +3 +3 1020.1 1007.3 +7.2
18 14.03 В 3 20 км 8/0 2000 м
[Ac trans]
+3.4 -2.3 66 -0 -0 1020.2 1007.3
21 14.03 В 3 20 км 8/0 2000 м
[Ac trans]
+0.1 -3.1 79 -4 -4 1018.8 1005.8
00 15.03 В 5 20 км 10/10 600 м
[Sc]
+0.9 -1.4 85 -5 -5 1018.1 1005.1
03 15.03 В 5 20 км 6/6 600 м
[Sc]
+0.3 -2.3 83 -6 -6 1017.2 1004.3 -0.1
06 15.03 В 6 20 км 10/10 600 м
[Sc]
+2.4 -1.3 77 -3 -3 1016.1 1003.3
09 15.03 В 9-13
{17}
20 км 10/10 600 м
[Sc]
+6.7 -2.2 53 +2 +2 1013.7 1001.1
12 15.03 В 8-14
{14}
20 км 10/0
[As trans]
+8.6 -2.8 45 +5 +5 1012.3 999.8
15 15.03 В 7-10
{14}
20 км 10/10 600 м
[Sc]
+5.8 -1.7 59 +1 +1 1012.3 999.6 +9.4
18 15.03 В 6
{13}
20 км 10/10 600 м
[Sc]
+3.8 -2.2 65 -1 -1 1013.0 1000.2
21 15.03 В 6
{11}
20 км 10/10 600 м
[Sc]
+3.0 -1.5 72 -3 -3 1011.9 999.2
00 16.03 В 5 20 км 10/10 600 м
[Sc]
+2.7 -1.2 75 -2 -2 1010.5 997.7
03 16.03 ЮВ 1 20 км 10/10 600 м
[Sc]
+2.5 -1.1 77 +1 +1 1011.2 998.4 +2.5
06 16.03 Ю 1 20 км 10/10 600 м
[Sc]
+5.4 -0.1 68 +5 +5 1011.1 998.4
09 16.03 З 1 20 км 6/0 2000 м
[Ac trans]
+10.2 +1.4 54 +10 +18 1009.3 996.9
12 16.03 СВ 2 20 км 8/0 2000 м
[Ac trans]
+12.3 +2.4 51 +12 +14 1007.5 995.2
15 16.03 СВ 1 20 км 10/10 600 м
[Sc]
+10.0 +2.6 60 +10 +10 1008.2 995.8 +12.4
18 16.03 штиль 0 20 км 10/10 600 м
[Sc]
+10.0 +2.6 60 +10 +10 1008.2 997.0
21 16.03 С 2 20 км 10/10 300 м
[St]
+8.0 +5.0 81 +6 +6 1009.6 997.1
00 17.03 СЗ 3 4000 м дымка 10/10 300 м
[St]
+6.6 +5.2 91 +3 +3 1009.6 997.0
03 17.03 СЗ 1 4000 м дымка 10/10 300 м
[St]
+5.8 +4.6 92 +5 +5 1009.8 997.2 +5.8
06 17.03 СЗ 3 4000 м дымка 10/10 300 м
[St]
+6.7 +4.4 85 +4 +4 1009.9 997.4 +5.7
09 17.03 СЗ 3 20 км 10/10 300 м
[Cb cap]
+8.9 +4.6 74 +7 +7 1009.9 997.4
12 17.03 СЗ 4 20 км 10/10 300 м
[Cb cap]
+9.0 +5.4 78 +6 +6 1010.2 997.7
15 17.03 СЗ 3 20 км 10/10 300 м
[Cb cap]
+8.9 +5.1 77 +7 +7 1012.9 1000.4 +9.8
18 17.03 З 3 4000 м слаб. ливневой дождь 10/10 300 м
[Cb cap]
+6.6 +5.7 94 +3 +3 1016.0 1003.4
21 17.03 СЗ 2 4000 м слаб. ливневой дождь 10/10 300 м
[Cb cap]
+5.8 +4.6 92 +3 +3 1017.3 1004.6
00 18.03 З 3 4000 м дымка {ливн. осадки} 10/10 300 м
[Cb cap]
+5.5 +4.4 93 +2 +2 1018.6 1005.9
03 18.03 З 2 4000 м дымка 10/10 300 м
[Cb cap]
+5.5 +3.6 88 +3 +3 1020.8 1008.0 +5.1 4
06 18.03 З 3 20 км 10/10 300 м
[St]
+6.9 +3.3 78 +4 +4 1022.6 1009.9
09 18.03 СЗ 3 20 км 10/10 300 м
[St]
+8.8 +3.3 68 +7 +7 1023.0 1010.4
12 18.03 СЗ 3 20 км 10/10 300 м
[Cb cap]
+9.9 +3.3 63 +8 +8 1023.3 1010.7
15 18.03 СЗ 2 20 км 10/10 300 м
[Cb cap]
+9.1 +3.1 66 +8 +8 1024.5 1011.9 +10.4
18 18.03 В 1 20 км 10/10 300 м
[Cb cap]
+7.0 +4.1 82 +6 +6 1026.1 1013.3
21 18.03 В 2 20 км 10/10 300 м
[Cb cap]
+5.6 +2.8 82 +3 +3 1026.7 1013.9
00 19.03 СВ 1 4000 м дымка 10/10 300 м
[St]
+4.0 +1.9 86 +3 +3 1026.9 1014.0
03 19.03 С 2 4000 м дымка 10/10 300 м
[St]
+2.5 +1.3 92 -1 -1 1027.9 1014.9 +2.4
06 19.03 С 2 4000 м дымка 10/10 300 м
[St]
+3.1 +1.5 89 0 0 1029.0 1016.1
09 19.03 СВ 1 20 км 10/10 300 м
[St]
+4.4 +1.2 80 +3 +3 1028.7 1015.8
12 19.03 С 2 20 км 6/0 2000 м
[Ac cast]
+7.4 +1.4 66 +6 +9 1026.9 1014.1
15 19.03 С 1 20 км 4/0 2000 м
[Ac trans]
+7.9 +0.7 60 +7 +7 1026.7 1014.0 +8.6
18 19.03 В 1 20 км 4/0
[Ci fib]
+1.6 -1.1 82 -0 -0 1027.7 1014.7
21 19.03 ЮЗ 1 20 км 4/0
[Ci fib]
-0.7 -2.3 89 -3 -3 1027.3 1014.2
00 20.03 штиль 0 20 км 3/0
[Ci fib]
-1.4 -2.1 95 -3 -3 1026.5 1013.3
03 20.03 штиль 0 20 км 4/0
[Ci fib]
-2.6 -3.1 96 -4 -4 1026.6 1013.4 -2.8
06 20.03 В 2 20 км 4/0
[Ci fib]
+3.2 +0.2 81 0 +5 1026.6 1013.7
09 20.03 СВ 3 20 км 4/0
[Ci fib]
+8.3 +0.1 56 +6 +15 опасность
простуды
1025.3 1012.6
12 20.03 СВ 3 20 км 4/0
[Ci fib]
+10.3 +1.2 53 +9 +13 1023.9 1011.3
15 20.03 В 2 20 км 4/0
[Ci fib]
+9.2 +1.4 58 +8 +8 1023.7 1011.1 +10.5
18 20.03 В 1 20 км 4/0
[Ci fib]
+4.0 +0.8 80 +3 +3 1024.7 1011.8

 

Местоположение метеостанции Арзгир (Ставропольский край, Россия): широта 45.40 долгота 44.20 высота над уровнем моря 103 м.

В архиве по умолчанию представлена погода в Арзгире за последнюю неделю. Архивные данные за месяц целиком и за предыдущие месяцы, начиная с января 2011 года, Вы можете получить, выбрав интересующий диапазон дат из раскрывающегося списка и нажав кнопку "Ввод!".


*Определитесь, кто Вы:
робот инопланетянин человек

Внимание! Время в таблицах - всемирное. Для получения местного времени необходимо прибавить поправку, которая равна 3 ч.

Смотрите также архив погоды в соседних городах и на ближайших метеорологических станциях:

Погода в Ики-Буруле (Калмыкия, Россия) (56 км)
Погода в Благодарном (Ставропольский край, Россия) (68 км)
Погода в Буденновске (Ставропольский край, Россия) (69 км)
Погода в Дивном (Ставропольский край, Россия) (88 км)
Погода в Светлограде (Ставропольский край, Россия) (106 км)
Погода в Элисте (Калмыкия, Россия) (108 км)
Погода в Зеленокумске (Ставропольский край, Россия) (111 км)
Погода в Александровском (Ставропольский край, Россия) (121 км)
Погода в Яшкуле (Калмыкия, Россия) (124 км)
Погода в Ремонтном (Ростовская область, Россия) (136 км)

Пояснения к столбцам:

Ветер - указаны скорость ветра в м/с - средняя за 10 мин, порывы в срок и между сроками (в фигурных скобках) и направление, откуда дует ветер: С - северный, СВ - северо-восточный, В - восточный, ЮВ - юго-восточный, Ю - южный, ЮЗ - юго-западный, З - западный, СЗ - северо-западный.
Видимость - горизонтальная дальность видимости в метрах или километрах. При видимости от 1 до 10 км при отсутствии осадков обычно наблюдается дымка, при ухудшении видимости до 1 км и менее - туман. В сухую погоду видимость может ухудшаться дымом, пылью или мглою.
Явления - указаны атмосферные явления, наблюдавшиеся в срок или в последний час перед сроком; фигурными скобками обозначены явления, наблюдавшиеся между сроками (за 1-3 часа до срока); квадратными скобками обозначены град или гололедные отложения с указанием их диаметра в мм.
Облачность - указаны через наклонную черту общая и нижняя облачность в баллах и высота нижней границы облаков в метрах; квадратными скобками обозначены формы облаков: Ci - перистые, Cs - перисто-слоистые, Cc - перисто-кучевые, Ac - высококучевые, As - высокослоистые, Sc - слоисто-кучевые, Ns - слоисто-дождевые, Cu - кучевые, Cb - кучево-дождевые. Подробнее классификацию облаков см. в Атласе облаков (PDF).
T - Температура воздуха - температура, измеренная на высоте 2 м над землей.
Td - Температура точки росы - температура, при понижении до которой содержащийся в воздухе водяной пар достигнет насыщения.
f - Относительная влажность воздуха - влажноcть воздуха, измеренная на высоте 2 м над землей.
Te - Эффективная температура - температура, которую ощущает одетый по сезону человек в тени. Характеристика душности погоды. При расчете учитывается влияние влажности воздуха и скорости ветра на теплоощущения человека.
Tes - Эффективная температура на солнце - температура, которую ощущает человек, с поправкой на солнечный нагрев. Характеристика знойности погоды. Зависит от высоты солнца над горизонтом, облачности и скорости ветра. Ночью, в пасмурную погоду, а также при ветре 12 м/с и более поправка равна нулю.
P - Атмосферное давление - приведенное к уровню моря атмосферное давление.
Po - Атмосферное давление - измеренное на уровне метеостанции атмосферное давление.
Tmin - Минимальная температура - минимум температуры воздуха на высоте 2 м над землей.
Tmax - Максимальная температура - максимум температуры воздуха на высоте 2 м над землей.
R - Количество осадков - Количество выпавших осадков за период времени, мм. При наведении курсора мыши на число - период времени, за который выпало указанное количество осадков.
R24 - Количество осадков - Количество выпавших осадков за 24 часа, мм.
S - Снежный покров - Высота снежного покрова, см. При наведении курсора мыши на число - состояние снежного покрова и степень покрытия местности в баллах.